星链-1747 (STARLINK-1747 )

导读

STARLINK-1747是美国SpaceX星链星座中的一颗卫星,于2020年10月6日发射升空,隶属于星链互联网卫星星座组网任务。星链系统旨在为全球提供低延迟、高速率的宽带互联网服务,该卫星通过低轨运行保障信号覆盖,服役期间承担星座通信组网任务,推动全球互联网络覆盖的建设。

Basic Information
目录编号:
46569
目录名称:
STARLINK-1747
国际标识:
2020-070AP
轨道中心:
EARTH
卫星名称:
星链-1747
卫星全名:
星链-1747 (STARLINK-1747 )
卫星状态:
已陨落 最后检测时间 2024-03-08
发射日期:
2020-10-06 UTC
国别 :
美国 (US)
星等 :
--
Orbit Information
数据来源 国际轨道数据
星历时间: 2024-03-08T04:53:52+0800
轨道信息已过期828天
半长轴: 6515.123km
偏心率: 0.0005367
轨道倾角: 53.028°
近地点辐角 17.293°
升交点赤经 166.637°
平近点角 79.758°
近地点: 133.491km
远地点: 140.485km
周期: 87.226分钟
每日圈数: 16.508929
Detailed Information
固有亮度:
5
最大亮度:
2.5
卫星平台:
Starlink V1.0
覆盖范围:
全球
运营商:
太空探索技术公司
运营商所在国:
美国
制造商(研发单位):
太空探索技术公司
制造商所在国:
美国
使用方式:
暂无
Satellite Introduction
星链(Starlink)计划是由太空探索技术公司(SpaceX)提出的一个巨型低轨卫星互联网星座项目,计划在2019年至2024年间在太空搭建由约1.2万颗卫星组成的“星链”网络,其中1584颗将部署在地球上空550千米处的近地轨道,并从2020年开始工作。该卫星已陨落。